星链-2089 (STARLINK-2089 )

导读 | 豆包AI

STARLINK-2089是美国SpaceX公司星链(Starlink)星座的成员,属于星链第16批次发射的卫星,于2021年1月20日成功发射入轨,运行于低地轨道,为全球提供高速低延迟的卫星互联网服务,尤其填补偏远地区网络覆盖空白。该卫星已在2025年1月4日再入大气层完成陨落,是星链星座迭代更新过程中完成生命周期的一代卫星。

基本信息
目录编号:
47372
目录名称:
STARLINK-2089
国际标识:
2021-005Z
轨道中心:
EARTH
卫星名称:
星链-2089
卫星全名:
星链-2089 (STARLINK-2089 )
卫星状态:
已陨落 最后检测时间 2025-01-02
发射日期:
2021-01-20 UTC
国别 :
美国 (US)
星等 :
--
轨道信息
数据来源 国际轨道数据
星历时间: 2025-01-02T15:03:36+0800
轨道信息已过期436天
半长轴: 6594.092km
偏心率: 0.0005138
轨道倾角: 53.052°
近地点辐角 57.167°
升交点赤经 170.214°
平近点角 76.028°
近地点: 212.568km
远地点: 219.346km
周期: 88.816分钟
每日圈数: 16.21326
详细信息
固有亮度:
5
最大亮度:
2.5
卫星平台:
Starlink V1.0
覆盖范围:
全球
运营商:
太空探索技术公司
运营商所在国:
美国
制造商(研发单位):
太空探索技术公司
制造商所在国:
美国
使用方式:
暂无
卫星简介
星链(Starlink)计划是由太空探索技术公司(SpaceX)提出的一个巨型低轨卫星互联网星座项目,计划在2019年至2024年间在太空搭建由约1.2万颗卫星组成的“星链”网络,其中1584颗将部署在地球上空550千米处的近地轨道,并从2020年开始工作。该卫星仍在工作。